Weather History for Oxford, CT

Change the Weather History Date:

Monday, February 18, 2013

  Actual Average Record
Temperature  
Mean Temperature 21 °F -  
Max Temperature 30 °F 36 °F 60 °F (2011)
Min Temperature 12 °F 21 °F 8 °F (2001)
Degree Days  
Heating Degree Days 44    
Moisture  
Dew Point -1 °F    
Average Humidity 45    
Maximum Humidity 53    
Minimum Humidity 32    
Precipitation  
Precipitation 0.00 in - - ()
Sea Level Pressure  
Sea Level Pressure 30.00 in    
Wind  
Wind Speed 11 mph (NW)    
Max Wind Speed 17 mph    
Max Gust Speed 29 mph    
Visibility 10 miles    
Events      
Averages and records for this station are not official NWS values.
T = Trace of Precipitation, MM = Missing Value Source: NWS Daily Summary

Daily Weather History Graph

Daily Weather History Graph

Search for Another Location

Airport:

Trip Planner

Search our weather history database for the weather conditions in past years. The results will help you decide how hot, cold, wet, or windy it might be!

Date:

Astronomy

Feb. 18, 2013 Rise Set
Actual Time 6:43 AM EST 5:30 PM EST
Civil Twilight 6:14 AM EST 5:58 PM EST
Nautical Twilight 5:42 AM EST 6:30 PM EST
Astronomical Twilight 5:10 AM EST 7:02 PM EST
Moon 11:12 AM EST 1:22 AM EST
Length of Visible Light 11h 43m
Length of Day
10h 47m
First Quarter, 58% of the Moon is Illuminated
Feb 18
First Quarter
Feb 25
Full
Mar 4
Last Quarter
Mar 11
New
Mar 19
First Quarter

Hourly Weather History & Observations

Time (EST) Temp. Windchill Dew Point Humidity Pressure Visibility Wind Dir Wind Speed Gust Speed Precip Events Conditions
12:15 AM 14.0 °F 0.5 °F -2.2 °F 49% 29.85 in 10.0 mi WNW 11.5 mph 18.4 mph N/A   Clear
12:35 AM 14.0 °F -1.4 °F -4.0 °F 45% 29.85 in 10.0 mi WNW 15.0 mph 21.9 mph N/A   Clear
12:55 AM 14.0 °F 1.2 °F -4.0 °F 45% 29.87 in 10.0 mi WNW 10.4 mph 26.5 mph N/A   Clear
1:15 AM 14.0 °F 2.9 °F -4.0 °F 45% 29.88 in 10.0 mi WNW 8.1 mph 19.6 mph N/A   Clear
1:35 AM 14.0 °F -0.2 °F -2.2 °F 49% 29.88 in 10.0 mi WNW 12.7 mph 23.0 mph N/A   Clear
1:55 AM 14.0 °F 3.9 °F -2.2 °F 49% 29.89 in 10.0 mi NW 6.9 mph 20.7 mph N/A   Clear
2:15 AM 14.0 °F 3.9 °F -4.0 °F 45% 29.90 in 10.0 mi WNW 6.9 mph 19.6 mph N/A   Clear
2:35 AM 12.2 °F -1.8 °F -2.2 °F 53% 29.90 in 10.0 mi WNW 11.5 mph 21.9 mph N/A   Clear
2:55 AM 12.2 °F -0.2 °F -2.2 °F 53% 29.90 in 10.0 mi NW 9.2 mph 23.0 mph N/A   Clear
3:15 AM 12.2 °F 0.7 °F -2.2 °F 53% 29.91 in 10.0 mi WNW 8.1 mph 21.9 mph N/A   Clear
3:35 AM 12.2 °F -1.8 °F -2.2 °F 53% 29.91 in 10.0 mi WNW 11.5 mph 23.0 mph N/A   Clear
3:55 AM 12.2 °F -2.5 °F -2.2 °F 53% 29.92 in 10.0 mi WNW 12.7 mph 20.7 mph N/A   Clear
4:15 AM 12.2 °F -3.7 °F -2.2 °F 53% 29.93 in 10.0 mi NW 15.0 mph 24.2 mph N/A   Clear
4:35 AM 12.2 °F -1.8 °F -4.0 °F 48% 29.95 in 10.0 mi WNW 11.5 mph 19.6 mph N/A   Clear
4:55 AM 12.2 °F -1.0 °F -2.2 °F 53% 29.96 in 10.0 mi WNW 10.4 mph 21.9 mph N/A   Clear
5:15 AM 12.2 °F -1.8 °F -2.2 °F 53% 29.97 in 10.0 mi WNW 11.5 mph 18.4 mph N/A   Clear
5:35 AM 12.2 °F -1.0 °F -4.0 °F 48% 29.98 in 10.0 mi WNW 10.4 mph 21.9 mph N/A   Clear
5:45 AM 12.2 °F -1.8 °F -4.0 °F 48% 29.99 in 10.0 mi NW 11.5 mph 23.0 mph N/A   Clear
6:45 AM 12.2 °F -1.8 °F -4.0 °F 48% 30.03 in 10.0 mi NW 11.5 mph 23.0 mph N/A   Clear
7:45 AM 12.2 °F -1.8 °F -2.2 °F 53% 30.06 in 10.0 mi NW 11.5 mph 23.0 mph N/A   Clear
8:45 AM 15.8 °F -0.2 °F -2.2 °F 45% 30.10 in 10.0 mi NNW 17.3 mph 28.8 mph N/A   Clear
9:45 AM 17.6 °F 8.2 °F -0.4 °F 45% 30.11 in 10.0 mi NNW 6.9 mph 19.6 mph N/A   Clear
10:45 AM 19.4 °F 10.4 °F -0.4 °F 42% 30.14 in 10.0 mi NW 6.9 mph 20.7 mph N/A   Clear
11:45 AM 23.0 °F 10.6 °F 1.4 °F 39% 30.14 in 10.0 mi NW 13.8 mph 18.4 mph N/A   Clear
12:45 PM 26.6 °F 16.2 °F 1.4 °F 34% 30.13 in 10.0 mi NW 11.5 mph 20.7 mph N/A   Clear
1:45 PM 28.4 °F 18.5 °F 3.2 °F 34% 30.11 in 10.0 mi NW 11.5 mph 17.3 mph N/A   Clear
2:45 PM 28.4 °F 19.7 °F 3.2 °F 34% 30.11 in 10.0 mi NW 9.2 mph 17.3 mph N/A   Clear
3:45 PM 30.2 °F 21.3 °F 3.2 °F 32% 30.11 in 10.0 mi WNW 10.4 mph 17.3 mph N/A   Clear
4:45 PM 30.2 °F 21.3 °F 5.0 °F 34% 30.12 in 10.0 mi WNW 10.4 mph 17.3 mph N/A   Clear
5:45 PM 28.4 °F 19.1 °F 5.0 °F 37% 30.13 in 10.0 mi West 10.4 mph - N/A   Clear
6:45 PM 28.4 °F 24.6 °F 5.0 °F 37% 30.16 in 10.0 mi West 3.5 mph - N/A   Clear
7:45 PM 26.6 °F - 5.0 °F 40% 30.16 in 10.0 mi Calm Calm - N/A   Clear